sat.trackr.live / text

‹ back to catalog

HAWK-11B

NORAD 62379 · 2024-247C

PAYLOAD ACTIVE UNKNOWN

§ Identity

Operator
Country
US
Launch date
2024-12-21
Launch site
AFWTR
Launch vehicle
Mass (kg)
RCS (m²)

External: N2YO · Heavens-Above · Gunter

§ Orbital elements

Epoch: 2026-05-25T02:59:48.712704Z

Period
94.12 min
Inclination
45.0164°
Eccentricity
0.0002838
Mean motion
15.29977550 rev/d
Perigee alt
473.9 km
Apogee alt
477.8 km
Semi-major
6,854.0 km
B*
2.0845e-4
RAAN
56.0775°
Arg perigee
94.1672°
Mean anomaly
265.9536°
Rev number
7,947

§ Raw data

HAWK-11B1 62379U 24247C   26145.12486936  .00005866  00000+0  20845-3 0  99992 62379  45.0164  56.0775 0002838  94.1672 265.9536 15.29977550 79472

JSON: /api/v1/satellites/62379 · /tle

For live sub-satellite position, see the globe view (requires WebGL).

§ Visibility from observer

Set your observer location to see the next 7 days of passes ≥ 10°. The values pass through the URL so the page stays shareable.

No JS? Fill the form by hand. The geolocation button needs JavaScript.